Regional Weather Roundup
Issued by NWS

Home | Current Version | Previous Version | Text Only | Print | Product List | Glossary Off
Versions: 1 2 3 4 5 6 7 8 9 10 11 12 13 14 15 16 17 18 19 20 21 22 23 24 25 26 27 28 29 30 31 32 33 34 35 36 37 38 39 40 41 42 43 44 45 46 47 48 49 50

000
ASUS43 KBIS 210910
RWRND
NORTH DAKOTA REGIONAL WEATHER ROUNDUP
NATIONAL WEATHER SERVICE EASTERN NORTH DAKOTA/GRAND FORKS ND
400 AM CDT MON MAY 21 2018

  NOTE: "FAIR" INDICATES FEW OR NO CLOUDS BELOW 12,000 FEET WITH NO
  SIGNIFICANT WEATHER AND/OR OBSTRUCTIONS TO VISIBILITY.

NDZ001>003-009>011-017-211000-
...NORTHWEST NORTH DAKOTA...

CITY           SKY/WX    TMP DP  RH WIND       PRES   REMARKS
WILLISTON      FAIR      53  37  54 S6        30.00F
MINOT          FAIR      46  35  65 CALM      30.05S
MINOT AFB      FAIR      42  35  76 S3        30.04S
$$

NDZ018>021-031>035-040>046-211000-
...SOUTHWEST NORTH DAKOTA...

CITY           SKY/WX    TMP DP  RH WIND       PRES   REMARKS
BISMARCK       FAIR      43  40  89 NE7       30.06F
DICKINSON      FAIR      39  34  82 SE7       30.01F WCI  34
GARRISON         N/A     41  35  79 CALM      30.05F
HETTINGER      FAIR      40  32  73 E6        30.04F
$$

NDZ004>008-012>016-024-026-027-054-211000-
...NORTHEAST NORTH DAKOTA...

CITY           SKY/WX    TMP DP  RH WIND       PRES   REMARKS
GRAND FORKS    FAIR      43  37  79 S3        30.09F
GRAND FORKS AF FAIR      43  37  77 CALM      30.09F
DEVILS LAKE    FAIR      46  41  82 CALM      30.10F
$$

NDZ022-023-025-028>030-036>039-047>053-211000-
...SOUTHEAST NORTH DAKOTA...

CITY           SKY/WX    TMP DP  RH WIND       PRES   REMARKS
JAMESTOWN      FAIR      48  37  65 SE5       30.08F
FARGO          FAIR      47  39  74 CALM      30.09F
WAHPETON       FAIR      50  34  53 E6        30.10S
$$




USA.gov is the U.S. government's official web portal to all federal, state and local government web resources and services.